Location: Unspecified
(0.0000°N, 0.0000°E)
Time: 13:38:47
(UTC+00:00)

S-56A Canister/Altair - Pass Details

Date: 26 November 2019
Orbit: 633 x 2500 km, 38.9° (Epoch: 08 December)

Event Time Altitude Azimuth Distance (km) Brightness Sun altitude
Rises 09:04:42 0° 210° (SSW) 5,336 11.8 45.2°
Reaches altitude 10° 09:08:24 10° 202° (SSW) 4,568 11.7 46.0°
Maximum altitude 09:20:18 37° 139° (SE) 3,352 12.7 48.5°
Drops below altitude 10° 09:33:32 10° 78° (ENE) 5,122 12.3 51.2°
Sets 09:37:53 0° 70° (ENE) 6,037 12.4 52.1°
